Tracking 19794 objects as of 23-Jul-2019
HD Live streaming from Space Station
objects crossing your sky now

NOAA 16 DEB

Track NOAA 16 DEB now!
10-day predictions


NORAD ID: 41081
Int'l Code: 2000-055AQ
Perigee: 746.5 km
Apogee: 961.9 km
Inclination: 99.1 °
Period: 101.9 minutes
Semi major axis: 7225 km
RCS: Unknown
Launch date: September 21, 2000
Source: United States (US)
Launch site: AIR FORCE WESTERN TEST RANGE (AFWTR)

Note: This is SATELLITE DEBRIS
aabbcc
Your satellite tracking list
Your tracking list is empty




NASA's NSSDC Master Catalog

Two Line Element Set (TLE):
1 41081U 00055AQ  19203.22771595  .00000247  00000-0  14014-3 0  9993
2 41081  99.1045 312.9138 0149064 224.5165 134.3952 14.13614988188290
Source of the keplerian elements: AFSPC